Location: Frizzleburg
(41.0764°N, 80.4548°W)
Time: 23:14:38
(UTC+00:00)

Cosmos 2360 Rocket - Pass Details

Date: 17 November 2019
Orbit: 832 x 847 km, 71.0° (Epoch: 05 December)

Event Time Altitude Azimuth Distance (km) Brightness Sun altitude
Exits shadow 09:55:00 - 352° (N) 3,056 5.0 -25.7°
Reaches altitude 10° 09:57:00 10° 4° (N) 2,478 4.6 -25.3°
Maximum altitude 10:01:09 20° 51° (NE) 1,845 4.4 -24.5°
Drops below altitude 10° 10:05:18 10° 98° (E) 2,467 5.7 -23.7°
Sets 10:08:23 0° 115° (ESE) 3,397 6.6 -23.1°
